Location: Gökben Yaylas?
(36.8988°N, 29.6291°E)
Time: 07:59:22
(UTC+00:00)

Cosmos 2237 Rocket - Pass Details

Date: 15 May 2026
Orbit: 833 x 849 km, 71.0° (Epoch: 5 June)

Event Time Altitude Azimuth Distance (km) Brightness Sun altitude
Rises 22:41:33 0° 332° (NNW) 3,409 6.0 -33.1°
Reaches altitude 10° 22:44:04 10° 328° (NNW) 2,468 5.1 -33.0°
Enters shadow 22:47:05 31° 313° (NW) 1,442 3.5 -32.9°
